Location: Marineo
(37.9500°N, 13.4170°E)
Time: 21:46:54
(UTC+01:00)

ISS - Pass Details

Date: 29 January 2019
Orbit: 403 x 411 km, 51.6° (Epoch: 16 February)

Event Time Altitude Azimuth Distance (km) Brightness Sun altitude
Rises 18:16:22 0° 290° (WNW) 2,329 1.0 -10.3°
Reaches altitude 10° 18:20:06 10° 334° (NNW) 1,474 -0.8 -11.0°
Maximum altitude 18:20:45 10° 345° (NNW) 1,450 -1.0 -11.1°
Drops below altitude 10° 18:21:24 10° 357° (N) 1,475 -1.1 -11.2°
Enters shadow 18:23:06 - 22° (NNE) 1,754 -0.9 -11.6°
